Regional Weather Roundup
Issued by NWS

Home | Current Version | Previous Version | Graphics & Text | Print | Product List | Glossary On
Versions: 1 2 3 4 5 6 7 8 9 10 11 12 13 14 15 16 17 18 19 20 21 22 23 24 25 26 27 28 29 30 31 32 33 34 35 36 37 38 39 40 41 42 43 44 45 46 47 48 49 50
000
ASUS43 KLOT 301810
RWRIL

ILLINOIS REGIONAL WEATHER ROUNDUP
NATIONAL WEATHER SERVICE CHICAGO/ROMEOVILLE IL
100 PM CDT WED JUL 30 2014

NOTE: "FAIR" INDICATES FEW OR NO CLOUDS BELOW 12,000 FEET WITH NO
SIGNIFICANT WEATHER AND/OR OBSTRUCTIONS TO VISIBILITY.

* THESE STATIONS ARE NOT UNDER NWS QUALITY CONTROL. THEY ALSO MAY NOT
  REPORT WEATHER SUCH AS PRECIPITATION OR FOG.

ILZ001-002-007-009-015-016-024-301900-
NORTHWEST ILLINOIS

CITY           SKY/WX    TMP DP  RH WIND       PRES   REMARKS
MOLINE         FAIR      79  59  50 W8        30.06F HX  80
6HR MIN TEMP:  58; 6HR MAX TEMP:  80;

STERLING*      FAIR      79  61  53 NW7       30.06F HX  80
SAVANNA*       FAIR      77  57  49 W5        30.06F
$$

ILZ003-004-008-010-011-017-018-301900-
NORTH CENTRAL ILLINOIS

CITY           SKY/WX    TMP DP  RH WIND       PRES   REMARKS
ROCKFORD       PTSUNNY   76  57  51 W9        30.06F
6HR MIN TEMP:  60; 6HR MAX TEMP:  77;

FREEPORT*      PTSUNNY   74  62  66 NW10      30.08F
ROCHELLE*      FAIR      76  56  49 NW5       30.06F
DE KALB*       FAIR      72  58  59 NW9       30.06F
PERU*          PTSUNNY   77  60  56 NW9G16    30.06F
$$

ILZ005-006-012>014-019>023-301900-
NORTHEAST ILLINOIS

CITY           SKY/WX    TMP DP  RH WIND       PRES   REMARKS
CHICAGO-OHARE  FAIR      78  52  40 W8        30.03F
6HR MIN TEMP:  63; 6HR MAX TEMP:  78;

CHICAGO-MIDWAY FAIR      78  54  43 VRB3G16   30.02F
6HR MIN TEMP:  65; 6HR MAX TEMP:  80;

AURORA         FAIR      76  59  55 NW8       30.05F
6HR MIN TEMP:  60; 6HR MAX TEMP:  76;

LANSING*       FAIR      77  56  47 W9        30.03F
JOLIET*        FAIR      77  55  47 W7        30.04F
WAUKEGAN       FAIR      69  59  70 NE8       30.03F
6HR MIN TEMP:  59; 6HR MAX TEMP:  71;

DUPAGE AIRPORT FAIR      78  57  48 W13       30.03F
6HR MIN TEMP:  62; 6HR MAX TEMP:  78;

KANKAKEE*      FAIR      76  62  62 W10       30.05F
WHEELING       FAIR      77  55  46 VRB7      30.04F
6HR MIN TEMP:  63; 6HR MAX TEMP:  78;

MORRIS*        FAIR      77  61  56 W9        30.04F
ROMEOVILLE*    FAIR      76  57  51 NW5       30.04F
NORTHERLY ISL    N/A     69  61  75 NE7         N/A
$$

LMZ740>746-301900-
SOUTHERN LAKE MICHIGAN

STATION/POSITION SKY/WX   TEMP    WIND        PRES    VSBY  WAVE
                          AIR SEA DIR/SP/G                  HT/PER
                          (F)     (DEG/KT/KT) (MB)    (MI)  (FT/S)
SOUTHERN BUOY              59 61  300/  8/ 10 1017.5F         1
WAUKEGAN HARBOR            63      50/  8/ 10   N/A
HARRISON CRIB              64      50/  8/  9   N/A
BURNHAM HARBOR             67      40/  7       N/A
CALUMET HARBOR             67      50/  7/  9 1015.9F
MICHIGAN CITY              67     250/  3/  4   N/A
MICHIGAN CITY 6N           66 69  340/  4/  4   N/A           1/ 3
ST. JOSEPH                 63 69  280/  6/  8   N/A           1/ 3
$$

ILZ025>027-034>036-040-047-049-050-058-095>099-301900-
WEST-CENTRAL ILLINOIS

CITY           SKY/WX    TMP DP  RH WIND       PRES   REMARKS
QUINCY         FAIR      77  56  48 VRB3      30.09F
GALESBURG*     FAIR      80  60  51 W9        30.08F HX  81
MACOMB*        FAIR      76  60  57 NW6       30.10F
JACKSONVILLE*  FAIR      80  60  49 NW5       30.09F HX  81
PITTSFIELD*    FAIR      80  55  42 W5        30.10F HX  80
$$

ILZ028>032-037-038-041>044-048-051>054-059>061-301900-
CENTRAL ILLINOIS

CITY           SKY/WX    TMP DP  RH WIND       PRES   REMARKS
PONTIAC        FAIR      79  63  57 W8        30.05F HX  80
DECATUR        FAIR      79  58  48 W9        30.08F HX  80
PEORIA         FAIR      81  57  43 W7G16     30.07F HX  81
6HR MIN TEMP:  62; 6HR MAX TEMP:  81;

LACON*         PTSUNNY   78  58  49 W7        30.05F
LINCOLN*       FAIR      81  58  45 NW5       30.05S HX  81
SPRINGFIELD    FAIR      80  60  50 NW7       30.08F HX  81
6HR MIN TEMP:  59; 6HR MAX TEMP:  80;

TAYLORVILLE    CLOUDY    75  59  57 W8        30.08F
$$

ILZ033-039-045-046-055>057-062-063-301900-
EAST-CENTRAL ILLINOIS

CITY           SKY/WX    TMP DP  RH WIND       PRES   REMARKS
CHAMPAIGN      FAIR      77  61  57 NW14      30.07F
DANVILLE*      FAIR      76  62  61 W14       30.03F
RANTOUL*       FAIR      80  59  49 NW9G16    30.07F HX  80
MATTOON        FAIR      77  59  53 W8        30.08F
PARIS*         FAIR      78  62  58 W8        30.07F HX  80
$$

ILZ079-100>102-301900-
SOUTHWEST ILLINOIS

CITY           SKY/WX    TMP DP  RH WIND       PRES   REMARKS
ALTON          MOSUNNY   79  55  44 CALM      30.09
BELLEVILLE     CLOUDY    80  58  46 NE5       30.08F HX  80
CAHOKIA*       CLOUDY    81  55  40 E3        30.08F HX  81
SPARTA*        FAIR      77  63  61 SW5       30.10F
$$

ILZ064>066-069>071-074>076-080>082-084>086-088>090-092>094-301900-
SOUTH-CENTRAL ILLINOIS

CITY           SKY/WX    TMP DP  RH WIND       PRES   REMARKS
CARBONDALE     FAIR      77  60  55 SW8       30.11F
6HR MIN TEMP:  60; 6HR MAX TEMP:  77;

CAIRO*         PTSUNNY   77  60  54 S3        30.11F
EFFINGHAM*     PTSUNNY   81  53  38 SW8       30.08F HX  80
MARION         PTSUNNY   79  57  47 SW12      30.11F HX  80
MT. VERNON     FAIR      81  57  44 W6        30.10F HX  81
CENTRALIA*     FAIR      90  53  27 W5        30.09F HX  88
SALEM*         FAIR     N/A N/A N/A NW6       30.10S
METROPOLIS*    FAIR      78  53  42 SW5       30.11F
$$

ILZ067-068-072-073-078-083-087-091-301900-
SOUTHEAST ILLINOIS

CITY           SKY/WX    TMP DP  RH WIND       PRES   REMARKS
LAWRENCEVILLE  FAIR      79  60  52 W9        30.09F HX  80
FLORA*         FAIR      79  58  48 W6        30.09F HX  80
FAIRFIELD*     FAIR      81  61  50 SW5       30.09F HX  81
HARRISBURG*    FAIR      79  60  53 W9        30.11F HX  80
ROBINSON*      FAIR      77  64  64 W7        30.09F
CARMI*         PTSUNNY   79  63  57 SW6       30.09F HX  80
$$

ABBREVIATIONS USED IN REMARKS
   TC - TEMPERATURE IN CELSIUS
  WCI - WIND CHILL INDEX
   HX - HEAT INDEX
  VSB - VISIBILITY
$$



USA.gov is the U.S. government's official web portal to all federal, state and local government web resources and services.